www.pogodaiklimat.ru

Архив погоды в Москве (город Москва, Россия)

Время
(UTC), дата
00 21.02
03 21.02
06 21.02
09 21.02
12 21.02
15 21.02
18 21.02
21 21.02
00 22.02
03 22.02
06 22.02
09 22.02
12 22.02
15 22.02
18 22.02
21 22.02
00 23.02
03 23.02
06 23.02
09 23.02
12 23.02
15 23.02
18 23.02
21 23.02
00 24.02
03 24.02
06 24.02
09 24.02
12 24.02
15 24.02
18 24.02
21 24.02
00 25.02
03 25.02
06 25.02
09 25.02
12 25.02
15 25.02
18 25.02
21 25.02
00 26.02
03 26.02
06 26.02
09 26.02
12 26.02
15 26.02
18 26.02
21 26.02
00 27.02
03 27.02
06 27.02
09 27.02
12 27.02
15 27.02
18 27.02
21 27.02
Ветер
(напр.,м/с)
Видим. Явления Облачность Т
(С)
Тd
(С)
f
(%)
Тe
(С)
Тes
(С)
Комфортность P
(гПа)
Po
(гПа)
Тmin
(С)
Tmax
(С)
R
(мм)
R24
(мм)
S
(см)
ЮВ 1 13 км 8/8 1000 м [Sc] -8.4 -11.0 81 -11 -11 по сезону 1026.5 1006.9
ЮВ 1 14 км 10/10 900 м [Sc] -6.9 -9.8 80 -9 -9 по сезону 1025.3 1005.8 -9.1
ЮВ 1 14 км 10/10 930 м [Sc] -5.5 -8.7 78 -8 -8 по сезону 1025.1 1005.7 -9.1 62
ЮВ 2 17 км 8/8 570 м [Sc] -3.7 -8.1 71 -8 -7 по сезону 1024.5 1005.3
ЮВ 2 19 км 10/10 1200 м [Sc] -3.4 -7.8 72 -7 -7 по сезону 1023.4 1004.3
ЮВ 3 17 км 10/10 570 м [Sc] -3.9 -7.7 75 -9 -9 по сезону 1023.5 1004.2
ЮВ 2 9000 м слаб. снег 10/10 570 м [Sc] -4.5 -7.2 81 -9 -9 по сезону 1023.0 1003.7 -3.1
ЮВ 1 7000 м слаб. снег 10/10 420 м [Sc] -4.6 -6.8 85 -7 -7 по сезону 1022.2 1002.9
ЮВ 2 7000 м слаб. снег 10/10 400 м [Frnb Ns] -4.3 -6.2 87 -9 -9 по сезону 1021.2 1002.0
ЮВ 1 8000 м дымка {снег} 10/10 330 м [Frnb] -4.0 -6.2 85 -6 -6 по сезону 1020.0 1000.8 -4.8 0.7
Ю 2 7000 м дымка {снег} 10/10 300 м [Frnb] -3.7 -6.0 84 -8 -8 по сезону 1020.5 1001.3 -4.8 0.7 62
ЮВ 1 7000 м дымка 10/10 300 м [St] -3.3 -5.7 83 -6 -6 по сезону 1019.6 1000.5
ЮВ 2 8000 м дымка 10/10 400 м [St] -2.1 -4.9 81 -6 -6 по сезону 1020.1 1001.0
Ю 3 10 км 10/10 420 м [Frnb] -2.7 -5.5 81 -8 -8 по сезону 1020.3 1001.2
ЮВ 2 9000 м слаб. снег 10/10 360 м [Frnb] -3.0 -5.5 83 -7 -7 по сезону 1020.2 1001.1 -2.1 0.0
ЮВ 1 6000 м слаб. снег 10/10 330 м [Frnb] -3.0 -4.8 87 -5 -5 по сезону 1019.8 1000.7
ЮВ 1 1500 м ливневой снег 10/10 330 м [Cb cap] -2.5 -3.7 91 -5 -5 по сезону 1019.7 1000.7
Ю 2 8000 м в посл. час ливневой снег 10/10 270 м [Cb cap] -2.1 -3.7 89 -6 -6 по сезону 1019.7 1000.7 -3.1 2
Ю 2 7000 м дымка {ливн. снег} 10/10 210 м [Frnb] -1.8 -3.2 90 -6 -6 по сезону 1020.8 1001.8 -3.1 2 63
ЮВ 3 8000 м дымка {ливн. снег} 10/10 270 м [Frnb] -1.1 -3.1 86 -6 -6 по сезону 1021.5 1002.5
ЮВ 2 9000 м дымка {ливн. снег} 10/10 300 м [Frnb] +0.4 -1.7 86 -3 -3 по сезону 1021.9 1003.0
ЮВ 2 6000 м дымка 10/10 300 м [Frnb] +0.9 -0.9 88 -3 -3 по сезону 1022.5 1003.7 0.0
Ю 2 9000 м дымка 10/10 330 м [Frnb] +1.6 -0.5 86 -2 -2 тепло 1023.2 1004.4 +1.6 0.0
Ю 3 12 км 10/10 400 м [Frnb] +1.3 -1.0 85 -3 -3 тепло 1024.2 1005.4
Ю 3 12 км 10/10 360 м [Frnb] +0.5 -1.6 86 -4 -4 по сезону 1025.2 1006.3
Ю 3 14 км {ливн. снег} 10/10 360 м [Frnb] +0.2 -2.1 85 -4 -4 по сезону 1025.9 1006.9 0.0 0.0
ЮВ 2 11 км в посл. час ливневой снег 10/10 330 м [Frnb] +0.3 -2.0 85 -3 -3 тепло 1026.8 1007.8 0.0 0.1 62
ЮВ 2 11 км слаб. ливневой снег 10/10 360 м [Cb calv] +0.8 -1.7 83 -3 -3 по сезону 1027.2 1008.3
Ю 2 12 км слаб. ливневой снег 10/10 450 м [Cb calv] +1.4 -1.4 82 -2 -2 по сезону 1027.8 1008.8
Ю 3 14 км слаб. ливневой снег 10/10 450 м [Cb calv] +1.3 -1.3 83 -3 -3 по сезону 1027.5 1008.6 0.1
ЮВ 3 11 км {ливн. снег} 9/8 1300 м [Sc Ac trans] +1.5 -1.0 83 -3 -3 по сезону 1027.7 1008.8 +1.5 0.1
Ю 2 20 км 10/0 [Ac und] +2.2 -2.0 74 -1 -1 тепло 1027.3 1008.5
Ю 2 2500 м ливневой снег 10/10 540 м [Cb calv] +0.9 -0.9 88 -3 -3 тепло 1027.8 1008.8
ЮВ 3 2000 м ливневой снег 10/10 300 м [Cb calv] +0.4 -0.5 94 -4 -4 по сезону 1027.8 1008.8 +0.4 2
ЮВ 3 3600 м ливневой снег 10/10 360 м [Cb calv] -0.2 -1.0 94 -5 -5 по сезону 1028.5 1009.4 -0.2 4 62
Ю 3 19 км в посл. час ливневой снег 10/10 1500 м [Sc] +0.5 -2.3 81 -4 -4 по сезону 1028.8 1009.8
Ю 2 6000 м слаб. снег {ливн. снег} 10/10 720 м [Ns] +0.4 -2.1 83 -3 -3 по сезону 1028.8 1009.8
ЮВ 2 7000 м слаб. снег 10/10 1000 м [Ns] -0.1 -3.8 76 -4 -4 по сезону 1028.4 1009.3 4
ЮВ 3 19 км слаб. снег 10/10 800 м [Ns] -0.6 -5.8 68 -5 -5 по сезону 1028.5 1009.4 +0.8 2
ЮВ 2 20 км в посл. час дождь со снегом 10/10 1500 м [Sc] -0.9 -6.9 64 -4 -4 по сезону 1028.4 1009.3
ЮВ 2 20 км в посл. час снег 10/6 1500 м [Sc Ac und] -1.0 -7.0 64 -4 -4 по сезону 1028.2 1009.1
ЮВ 2 20 км 10/0 [Ac und] -1.6 -8.0 62 -5 -5 по сезону 1027.7 1008.6 -1.6 0.6
Ю 3 20 км 10/0 [Ac As] -2.1 -7.6 66 -7 -6 по сезону 1027.5 1008.4 -2.2 0.5 62
ЮВ 3 20 км 10/0 [Ac As Cs] -0.9 -6.5 66 -5 -4 по сезону 1027.2 1008.1
ЮВ 4 19 км 10/0 [Ac trans Cs] -0.2 -6.3 63 -5 -4 по сезону 1026.5 1007.4
ЮВ 2 20 км 9/0 [Ac trans Cs] -0.5 -8.3 56 -4 -4 по сезону 1026.5 1007.5
Ю 2 20 км 6/0 [Ac trans Ci fib] -2.0 -9.5 56 -5 -5 по сезону 1027.1 1007.9 +0.7
Ю 1 20 км ясно -3.0 -9.2 62 -5 -5 по сезону 1027.4 1008.2
ЮВ 1 20 км ясно -4.0 -8.8 69 -6 -6 по сезону 1028.5 1009.2
Ю 1 20 км 9/9 1440 м [Sc] -3.1 -7.2 73 -5 -5 по сезону 1028.6 1009.3 -4.0
Ю 1 20 км 10/6 1410 м [Sc Ac As] -1.6 -5.9 72 -3 -3 по сезону 1028.8 1009.7 -4.0 61
Ю 2 19 км 10/4 1000 м [Sc Ac und] +0.4 -5.2 66 -3 -2 по сезону 1029.1 1010.1
ЮВ 2 17 км 9/3 1200 м [Sc Ac As] +1.8 -4.6 62 -1 -0 по сезону 1028.7 1009.8
ЮВ 2 10 км 6/0 [Ac trans] +3.0 -4.9 56 +1 +1 тепло 1027.8 1008.9
ЮВ 2 н/о ясно -1.4 -7.1 65 -5 -5 по сезону 1028.6 1009.4 +4.2
Ю 1 н/о ясно -2.7 -8.8 63 -5 -5 по сезону 1028.1 1008.9
Местоположение метеостанции Москва (город Москва, Россия): широта 55.83 долгота 37.62 высота над уровнем моря 156 м.
В архиве по умолчанию представлена погода в Москве за последнюю неделю. Архивные данные за месяц целиком и за предыдущие месяцы, начиная с января 2011 года, Вы можете получить, выбрав интересующий диапазон дат из раскрывающегося списка и нажав кнопку "Найти!".
*Определитесь, кто Вы:
Внимание! Время в таблицах - всемирное. Для получения местного времени необходимо прибавить поправку, которая равна 3 ч.
Некоторые строки с данными для отдельных станций могут быть выделены курсивом. Это означает, что фактические данные отсутствуют по различным причинам, а приведенные значения являются расчетными модельными данными для данного пункта наблюдений.
Смотрите также архив погоды в соседних городах и на ближайших метеорологических станциях:
Партнеры нашего сайта:      
Пояснения к столбцам:
  • Ветер - указаны скорость ветра в м/с - средняя за 10 мин, порывы в срок и между сроками (в фигурных скобках) и направление, откуда дует ветер: С - северный,
  • СВ - северо-восточный, В - восточный, ЮВ - юго-восточный, Ю - южный, ЮЗ - юго-западный, З - западный, СЗ - северо-западный.
  • Видимость - горизонтальная дальность видимости в метрах или километрах. При видимости от 1 до 10 км при отсутствии осадков обычно наблюдается дымка, при ухудшении видимости до 1 км и менее - туман. В сухую погоду видимость может ухудшаться дымом, пылью или мглою.
  • Явления - указаны атмосферные явления, наблюдавшиеся в срок или в последний час перед сроком; фигурными скобками обозначены явления, наблюдавшиеся между сроками (за 1-3 часа до срока); квадратными скобками обозначены град или гололедные отложения с указанием их диаметра в мм.
  • Облачность - указаны через наклонную черту общая и нижняя облачность в баллах и высота нижней границы облаков в метрах; квадратными скобками обозначены формы облаков: Ci - перистые, Cs - перисто-слоистые, Cc - перисто-кучевые, Ac - высококучевые, As - высокослоистые, Sc - слоисто-кучевые, Ns - слоисто-дождевые, Cu - кучевые, Cb - кучево-дождевые. Подробнее классификацию облаков см. в Атласе облаков (PDF).
  • T - Температура воздуха - температура, измеренная на высоте 2 м над землей.
  • Td - Температура точки росы - температура, при понижении до которой содержащийся в воздухе водяной пар достигнет насыщения.
  • f - Относительная влажность воздуха - влажноcть воздуха, измеренная на высоте 2 м над землей.
  • Te - Эффективная температура - температура, которую ощущает одетый по сезону человек в тени. Характеристика душности погоды. При расчете учитывается влияние влажности воздуха и скорости ветра на теплоощущения человека.
  • Tes - Эффективная температура на солнце - температура, которую ощущает человек, с поправкой на солнечный нагрев. Характеристика знойности погоды. Зависит от высоты солнца над горизонтом, облачности и скорости ветра. Ночью, в пасмурную погоду, а также при ветре 12 м/с и более поправка равна нулю.
  • P - Атмосферное давление - приведенное к уровню моря атмосферное давление.
  • Po - Атмосферное давление - измеренное на уровне метеостанции атмосферное давление.
  • Tmin - Минимальная температура - минимум температуры воздуха на высоте 2 м над землей.
  • Tmax - Максимальная температура - максимум температуры воздуха на высоте 2 м над землей.
  • R - Количество осадков - Количество выпавших осадков за период времени, мм. При наведении курсора мыши на число - период времени, за который выпало указанное количество осадков.
  • R24 - Количество осадков - Количество выпавших осадков за 24 часа, мм.
  • S - Снежный покров - Высота снежного покрова, см. При наведении курсора мыши на число - состояние снежного покрова и степень покрытия местности в баллах.